Location: Marne
(34.0056°N, 117.9064°W)
Time: 03:18:00
(UTC+00:00)

Cosmos 1626 - Pass Details

Date: 18 January 2020
Orbit: 493 x 494 km, 82.5° (Epoch: 16 February)

Event Time Altitude Azimuth Distance (km) Brightness Sun altitude
Rises 01:37:22 0° 176° (S) 2,558 6.0 -6.6°
Reaches altitude 10° 01:39:29 10° 172° (S) 1,681 5.0 -7.0°
Maximum altitude 01:43:05 56° 94° (E) 593 2.2 -7.7°
Drops below altitude 10° 01:46:43 10° 16° (NNE) 1,695 4.5 -8.4°
Sets 01:48:52 0° 12° (NNE) 2,581 5.4 -8.9°
